Погода Купино

Погода Купино : погода сейчас, прогноз погоды и архив. Всё, что Вы хотите узнать о погоде Купино!

Хотите узнать прогноз погоды Купино? Тогда Вам сюда: Погода Купино

Поиск расширенной информации на нашем сайте:

Другие новости

Новости СМИ2

Главная страница сайта

Новости сайта

03.07.2017

Напоминаем, что на нашем специализированном сайте Метеоцентр.Азия вы можете получить высокодетализированные автоматические прогнозы погоды по пунктам России, СНГ и мира в авиационном формате (включающие направление и скорость ветра, видимость, явления погоды, количество и форму облачности, нижнюю и верхнюю границу облачности).


Погода Купино - сегодня

Время (UTC), дата Ветер
(°,м/с) 
Видим.   Явления Облачность Т
(°С)
Тd
(°С)
f(%) Тe
(°С)
Pmin
(гПа)
dP
(гПа)
Po
(мм)
O2
(г/м3)
Тmin Tmax R s Состояние
почвы
06 21.11.17 240 (ЮЗ) 20000 м    10/10 1000 м 
[Sc]
-2 -4 86 -5  1033.8  0.4  764  311           
09 21.11.17 230 (ЮЗ) 20000 м    8/4 1000 м средняя 
[Sc|Ac trans]
-1.4 -4.1 82 -5  1033.4  -0.4  764  310           
12 21.11.17 230 (ЮЗ) 20000 м    10/10 1000 м 
[Sc]
-1.3 -3.6 84 -5  1033.4  764  310    -1.1       
15 21.11.17 240 (ЮЗ) 20000 м    ясно 
-3 -4.8 87 -7  1033.3  -0.2  764  312           
18 21.11.17 240 (ЮЗ) 20000 м    ясно 
-3.2 -5.7 83 -7  1033.2  -0.1  764  312           
21 21.11.17 240 (ЮЗ) 20000 м    9/9 1000 м 
[Sc]
-2.7 -5.3 82 -6  1033.5  0.4  764  312           
00 22.11.17 240 (ЮЗ) 20000 м    4/4 1000 м 
[Sc]
-4.4 -6.6 85 -8  1033.9  0.2  764  314  -4.4      равномерный
сухой снег
100% 
03 22.11.17 220 (ЮЗ) 20000 м    10/8 1000 м верхняя 
[Sc|Ci fib]
-6.1 -7.9 87 -9  1034.4  0.4  764  316  -6.2         
06 22.11.17 220 (ЮЗ) 20000 м    10/3 1000 м верхняя 
[Sc|Ci fib]
-3.3 -7.3 74 -5  1034.6  0.4  765  313           
09 22.11.17 200 (Ю) 20000 м    8/3 1000 м верхняя 
[Sc|Ci fib]
-0.6 -5.7 68 -2  1034  -0.4  764  309           
12 22.11.17 190 (Ю) 20000 м    10/10 1000 м 
[Sc]
-1.8 -5.4 76 -4  1033.5  -0.6  764  311    -0.2       
15 22.11.17 190 (Ю) 20000 м    3/0 верхняя 
[Ci fib]
-5.2 -7.7 83 -8  1033.3  -0.4  764  315           
18 22.11.17 200 (Ю) 20000 м    ясно 
-6 -8.2 84 -9  1032.7  -0.7  763  315           
21 22.11.17 180 (Ю) 20000 м    ясно 
-7.8 -9.2 90 -9  1031.9  -0.8  763  317           
00 23.11.17 160 (Ю) 20000 м    ясно 
-8.9 -10.3 90 -12  1031  -1  762  318  -9      равномерный
сухой снег
100% 
03 23.11.17 160 (Ю) 20000 м    5/0 верхняя 
[Ci fib]
-9.9 -10.9 92 -13  1032.1  763  320  -10.7         
06 23.11.17 190 (Ю) 20000 м    ясно 
-4.7 -7.8 79 -7  1031.7  -0.1  763  313           
09 23.11.17 190 (Ю) 20000 м    ясно 
-1.7 -6.8 68 -4  1030.8  -0.7  762  310           
12 23.11.17 160 (Ю) 20000 м    ясно 
-5.1 -7.7 82 -6  1031.1  0.2  762  314    -1.6       
15 23.11.17 190 (Ю) 20000 м    ясно 
-6 -8.5 82 -9  1031.3  762  315           
18 23.11.17 190 (Ю) 20000 м    ясно 
-7.3 -9.3 86 -9  1031.4  0.1  762  317           
21 23.11.17 200 (Ю) 20000 м    ясно 
-8.7 -10.2 89 -8  1031.2  -0.3  762  318           
00 24.11.17 140 (ЮВ) 20000 м    ясно 
-10.5 -11.4 93 -10  1031.1  -0.1  762  320  -12.1      равномерный
сухой снег
100% 
03 24.11.17 160 (Ю) 20000 м    ясно 
-9 -11 85 -11  1030.8  -0.3  762  318           
06 24.11.17 180 (Ю) 20000 м    ясно 
-3.4 -8.7 67 -6  1029.8  -0.6  761  312           
Время (UTC), дата Ветер
(°,м/с) 
Видим.   Явления Облачность Т
(°С)
Тd
(°С)
f(%) Тe
(°С)
Pmin
(гПа)
dP
(гПа)
Po
(мм)
O2
(г/м3)
Тmin Tmax R s Состояние
почвы

Для получения пояснительной информации подведите курсор к названию столбца.

ПОГОДА Купино - архив

Всё, что Вы хотите узнать о погоде Купино - удобно и подробно!

Выберите нужную дату (начиная с 1 января 2015* года) и нажмите кнопку "Найти".
Будут отображены архивные сводки погоды по пункту Купино, начиная с указанной даты.


Отображать данные в формате CSV (для использования в таблицах Excel)


Внимание! Наш архив погоды предназначен исключительно для личного некоммерческого использования в познавательных целях. Если Вам необходимы официальные справки о состоянии погоды (для производственных, юридических, коммерческих и т.п. целей), обращайтесь в органы Росгидромета.

*Примечание: данная дата относится к архиву по метеостанциям СССР (Россия, СНГ, Балтия).
Архив по метеостанциям Зарубежной Европы и Азии (кроме Китая) хранится 10 дней, по другим регионам земного шара (Китай, Африка, Америка, Австралия, Океания) - 1 день.

Купино - район местоположения метеостанции


Название, широта, долгота, высота метеостанции:
Купино 54.4°ш. 77.3°д. 115 м над ур. моря [Российская Федерация]

Дополнительная информация

В oтличие oт бoльшинства пoгoдных сайтoв мы публикуем пoдрoбную метеoинфoрмацию в детальнoм прoфессиoнальнoм фoрмате.

Характеристики температуры и влажнoсти вoздуха измеряются на высoте 2 м в тени вдали oт зданий и деревьев.
Скoрoсть ветра измеряется на высoте 10 м (на урoвне рoста челoвека скoрoсть ветра ниже в 1.5-2 раза). Если метеoстанция нахoдится в гoрoде или в лесу, тo скoрoсть ветра занижена на 2-4 м/с пo сравнению с oткрытым местoм. Скoрoсть ветра над акватoриями крупных рек и oзёр, а также на вершинах хoлмoв на 2-5 м/с выше, чем в oбычных услoвиях.
Атмoсфернoе давление в разных тoчках местнoсти мoжет значительнo oтличаться oт давления на метеoстанции, в зависимoсти oт услoвий рельефа (при пoдъёме на 10 м давление пoнижается примернo на 1 мм рт.ст.).